TON YNRG-YABA

Flight info

Callsign TON
Flight time N/A
Altitude 4000
Route YBOP DCT YKOJ DCT YKNG DCT YCXX DCT YDEK
Aircraft C182/L-SDGRY/S

Departure

Time 2026-04-19 09:02
Airport Narrogin Airport (YNRG)

Arrival

Time N/A
Airport Albany Airport (YABA)
Time Latitude Longitude Altitude Speed Heading
2026-04-19 08:59 -32.92662 117.07915 1080 ft 0 kts 265°
2026-04-19 09:00 -32.92676 117.07902 1081 ft 8 kts 208°
2026-04-19 09:00 -32.92708 117.07865 1082 ft 15 kts 265°
2026-04-19 09:00 -32.92687 117.07657 1086 ft 35 kts 281°
2026-04-19 09:00 -32.92651 117.07324 1086 ft 39 kts 276°
2026-04-19 09:01 -32.92626 117.07037 1087 ft 32 kts 276°
2026-04-19 09:01 -32.92612 117.06847 1087 ft 8 kts 333°
2026-04-19 09:01 -32.92604 117.06929 1088 ft 25 kts 98°
2026-04-19 09:01 -32.92657 117.07350 1087 ft 77 kts 96°
2026-04-19 09:02 -32.92728 117.08055 1302 ft 90 kts 96°
2026-04-19 09:02 -32.92832 117.08798 1637 ft 93 kts 101°
2026-04-19 09:02 -32.93273 117.09363 1911 ft 100 kts 159°
2026-04-19 09:03 -32.94741 117.08927 2592 ft 102 kts 213°
2026-04-19 09:03 -32.95370 117.08500 2898 ft 106 kts 212°
2026-04-19 09:03 -32.96016 117.08064 3196 ft 109 kts 213°
2026-04-19 09:03 -32.96688 117.07613 3501 ft 113 kts 213°
2026-04-19 09:04 -32.97377 117.07153 3795 ft 114 kts 213°
2026-04-19 09:04 -32.98080 117.06684 4001 ft 123 kts 213°
2026-04-19 09:04 -32.98852 117.06167 4001 ft 129 kts 212°
2026-04-19 09:04 -32.99636 117.05646 4006 ft 129 kts 213°
2026-04-19 09:05 -33.00423 117.05123 4007 ft 130 kts 212°
2026-04-19 09:05 -33.01210 117.04599 4010 ft 130 kts 212°
2026-04-19 09:05 -33.01998 117.04074 4010 ft 130 kts 212°
2026-04-19 09:05 -33.02783 117.03552 4009 ft 131 kts 212°
2026-04-19 09:06 -33.03583 117.03018 4011 ft 132 kts 212°
2026-04-19 09:06 -33.04382 117.02486 4004 ft 132 kts 212°
2026-04-19 09:06 -33.05182 117.01953 4006 ft 132 kts 212°
2026-04-19 09:06 -33.05982 117.01419 4001 ft 132 kts 212°
2026-04-19 09:07 -33.06781 117.00887 4008 ft 131 kts 212°
2026-04-19 09:07 -33.07579 117.00355 4003 ft 132 kts 213°
2026-04-19 09:07 -33.08379 116.99821 4008 ft 132 kts 213°
2026-04-19 09:07 -33.09171 116.99293 4004 ft 130 kts 213°
2026-04-19 09:08 -33.09948 116.98774 4006 ft 130 kts 212°
2026-04-19 09:08 -33.10737 116.98247 4008 ft 131 kts 212°
2026-04-19 09:08 -33.11530 116.97718 4006 ft 130 kts 211°
2026-04-19 09:08 -33.12321 116.97189 4006 ft 130 kts 212°
2026-04-19 09:09 -33.13111 116.96661 4008 ft 131 kts 212°
2026-04-19 09:09 -33.13906 116.96130 4010 ft 131 kts 212°
2026-04-19 09:09 -33.14706 116.95596 4006 ft 132 kts 212°
2026-04-19 09:09 -33.15505 116.95062 4006 ft 131 kts 212°
2026-04-19 09:10 -33.16301 116.94530 4009 ft 131 kts 212°
2026-04-19 09:10 -33.17082 116.94008 4008 ft 130 kts 212°
2026-04-19 09:10 -33.17877 116.93476 4010 ft 131 kts 212°
2026-04-19 09:10 -33.18674 116.92943 4008 ft 132 kts 212°
2026-04-19 09:11 -33.19473 116.92408 4008 ft 132 kts 212°
2026-04-19 09:11 -33.20272 116.91874 4004 ft 131 kts 212°
2026-04-19 09:11 -33.21069 116.91340 4007 ft 131 kts 212°
2026-04-19 09:11 -33.21865 116.90807 4006 ft 131 kts 212°
2026-04-19 09:12 -33.22664 116.90273 4001 ft 132 kts 212°
2026-04-19 09:12 -33.23194 116.89918 4001 ft 132 kts 212°
2026-04-19 09:12 -33.24257 116.89205 4005 ft 131 kts 212°
2026-04-19 09:12 -33.25038 116.88682 4008 ft 131 kts 212°
2026-04-19 09:13 -33.25834 116.88149 4004 ft 131 kts 212°
2026-04-19 09:13 -33.26630 116.87615 4009 ft 131 kts 211°
2026-04-19 09:13 -33.27424 116.87083 4007 ft 130 kts 212°
2026-04-19 09:13 -33.28213 116.86554 4001 ft 130 kts 212°
2026-04-19 09:14 -33.29001 116.86025 4005 ft 130 kts 212°
2026-04-19 09:14 -33.29527 116.85672 4004 ft 131 kts 212°
2026-04-19 09:14 -33.30320 116.85140 4009 ft 131 kts 212°
2026-04-19 09:14 -33.31108 116.84611 4000 ft 127 kts 212°
2026-04-19 09:15 -33.32088 116.83955 3992 ft 119 kts 212°
2026-04-19 09:15 -33.32803 116.83475 3989 ft 117 kts 212°
2026-04-19 09:15 -33.34206 116.82533 3985 ft 115 kts 212°
2026-04-19 09:16 -33.34666 116.82224 3991 ft 114 kts 212°
2026-04-19 09:16 -33.35586 116.81606 3988 ft 113 kts 212°
2026-04-19 09:16 -33.36269 116.81147 3990 ft 113 kts 212°
2026-04-19 09:16 -33.36723 116.80841 3987 ft 113 kts 212°
2026-04-19 09:17 -33.37412 116.80378 3989 ft 114 kts 212°
2026-04-19 09:17 -33.38327 116.79762 3987 ft 114 kts 212°
2026-04-19 09:17 -33.38791 116.79451 3990 ft 113 kts 212°
2026-04-19 09:17 -33.39694 116.78844 3987 ft 112 kts 212°
2026-04-19 09:18 -33.40144 116.78541 3991 ft 112 kts 212°
2026-04-19 09:18 -33.41055 116.77928 3988 ft 113 kts 212°
2026-04-19 09:18 -33.41506 116.77624 3990 ft 112 kts 212°
2026-04-19 09:18 -33.42186 116.77166 3988 ft 112 kts 212°
2026-04-19 09:19 -33.42866 116.76709 3989 ft 112 kts 212°
2026-04-19 09:19 -33.43545 116.76252 3991 ft 112 kts 212°
2026-04-19 09:19 -33.44456 116.75637 3991 ft 112 kts 212°
2026-04-19 09:19 -33.44908 116.75333 3991 ft 113 kts 212°
2026-04-19 09:20 -33.45591 116.74873 3991 ft 113 kts 212°
2026-04-19 09:20 -33.46272 116.74415 3992 ft 112 kts 212°
2026-04-19 09:20 -33.46939 116.73965 3991 ft 111 kts 212°
2026-04-19 09:20 -33.47615 116.73510 3985 ft 112 kts 212°
2026-04-19 09:21 -33.48524 116.72896 3996 ft 113 kts 212°
2026-04-19 09:21 -33.48978 116.72590 3993 ft 113 kts 212°
2026-04-19 09:21 -33.49664 116.72127 3994 ft 113 kts 212°
2026-04-19 09:21 -33.50348 116.71666 3998 ft 113 kts 212°
2026-04-19 09:22 -33.51252 116.71056 3998 ft 112 kts 212°
2026-04-19 09:22 -33.51711 116.70747 3993 ft 112 kts 212°
2026-04-19 09:22 -33.52386 116.70291 3997 ft 113 kts 213°
2026-04-19 09:22 -33.53074 116.69826 3990 ft 113 kts 212°
2026-04-19 09:23 -33.53763 116.69361 3997 ft 114 kts 212°
2026-04-19 09:23 -33.54450 116.68897 3996 ft 113 kts 212°
2026-04-19 09:23 -33.55135 116.68435 4001 ft 113 kts 212°
2026-04-19 09:23 -33.56042 116.67822 3996 ft 113 kts 212°
2026-04-19 09:24 -33.56505 116.67509 4000 ft 113 kts 212°
2026-04-19 09:24 -33.57189 116.67047 3999 ft 112 kts 212°
2026-04-19 09:24 -33.57857 116.66596 3994 ft 111 kts 212°
2026-04-19 09:24 -33.58529 116.66141 3996 ft 110 kts 212°
2026-04-19 09:25 -33.59201 116.65687 3996 ft 111 kts 212°
2026-04-19 09:25 -33.59875 116.65231 3994 ft 111 kts 213°
2026-04-19 09:25 -33.60552 116.64773 3996 ft 112 kts 212°
2026-04-19 09:25 -33.61228 116.64316 3997 ft 111 kts 212°
2026-04-19 09:26 -33.61899 116.63861 3997 ft 111 kts 212°
2026-04-19 09:26 -33.62572 116.63406 3993 ft 111 kts 213°
2026-04-19 09:26 -33.63242 116.62953 3997 ft 111 kts 213°
2026-04-19 09:26 -33.63919 116.62494 3997 ft 112 kts 213°
2026-04-19 09:27 -33.64589 116.62040 3998 ft 112 kts 212°
2026-04-19 09:27 -33.65266 116.61582 3996 ft 112 kts 212°
2026-04-19 09:27 -33.65940 116.61126 3998 ft 111 kts 212°
2026-04-19 09:27 -33.66613 116.60669 4000 ft 111 kts 212°
2026-04-19 09:28 -33.67290 116.60211 4000 ft 112 kts 213°
2026-04-19 09:28 -33.67971 116.59749 4000 ft 113 kts 213°
2026-04-19 09:28 -33.68654 116.59285 4001 ft 113 kts 213°
2026-04-19 09:28 -33.69337 116.58822 3998 ft 112 kts 212°
2026-04-19 09:29 -33.70011 116.58366 3996 ft 112 kts 212°
2026-04-19 09:29 -33.70687 116.57908 3999 ft 112 kts 213°
2026-04-19 09:29 -33.71366 116.57446 4001 ft 113 kts 213°
2026-04-19 09:29 -33.72053 116.56980 4001 ft 113 kts 213°
2026-04-19 09:30 -33.72738 116.56515 4002 ft 113 kts 212°
2026-04-19 09:30 -33.73423 116.56051 4004 ft 113 kts 213°
2026-04-19 09:30 -33.74109 116.55584 4001 ft 114 kts 213°
2026-04-19 09:30 -33.74799 116.55116 4004 ft 114 kts 213°
2026-04-19 09:31 -33.75492 116.54645 4002 ft 114 kts 213°
2026-04-19 09:31 -33.76179 116.54202 3992 ft 114 kts 205°
2026-04-19 09:31 -33.76964 116.54286 3980 ft 117 kts 151°
2026-04-19 09:31 -33.77547 116.54947 3990 ft 115 kts 132°
2026-04-19 09:32 -33.78130 116.55621 3989 ft 117 kts 136°
2026-04-19 09:32 -33.78733 116.56284 3990 ft 118 kts 137°
2026-04-19 09:32 -33.79342 116.56937 3991 ft 117 kts 137°
2026-04-19 09:32 -33.79949 116.57583 3989 ft 116 kts 138°
2026-04-19 09:33 -33.80551 116.58223 3993 ft 116 kts 138°
2026-04-19 09:33 -33.81150 116.58857 3990 ft 116 kts 139°
2026-04-19 09:33 -33.81755 116.59498 3990 ft 116 kts 138°
2026-04-19 09:33 -33.82359 116.60138 3993 ft 116 kts 138°
2026-04-19 09:34 -33.82967 116.60781 3993 ft 117 kts 138°
2026-04-19 09:34 -33.83581 116.61430 3994 ft 118 kts 138°
2026-04-19 09:34 -33.84193 116.62080 3995 ft 117 kts 138°
2026-04-19 09:34 -33.84810 116.62733 3998 ft 119 kts 138°
2026-04-19 09:35 -33.85425 116.63384 3998 ft 119 kts 138°
2026-04-19 09:35 -33.86042 116.64038 3998 ft 118 kts 138°
2026-04-19 09:35 -33.86656 116.64688 3997 ft 117 kts 138°
2026-04-19 09:35 -33.87262 116.65332 3993 ft 116 kts 138°
2026-04-19 09:36 -33.87871 116.65977 3995 ft 117 kts 138°
2026-04-19 09:36 -33.88475 116.66618 3994 ft 115 kts 137°
2026-04-19 09:36 -33.89080 116.67260 3994 ft 116 kts 138°
2026-04-19 09:36 -33.89689 116.67906 3993 ft 117 kts 137°